GFSNIL_850_temp_033.txt.gz
Temp
16 16 15 15 15 14 12 13 11 10 9 9 9 10 9 9 9 8 8 7 7 6
16 15 15 14 13 12 11 11 11 10 9 9 9 9 9 9 8 7 7 7 6 5
15 15 14 14 12 11 10 10 10 9 8 8 7 8 8 8 7 7 6 6 5 4
13 13 13 12 11 11 10 9 9 8 7 6 7 8 7 7 6 6 5 5 4 3
12 12 12 11 10 9 8 8 7 7 6 6 7 6 6 6 6 5 4 4 3 2
12 11 10 9 9 8 7 7 6 5 6 5 6 6 5 5 4 4 3 2 2 1
10 9 9 8 7 6 5 5 4 3 4 4 5 5 4 4 3 2 1 1 1 -0
9 7 6 5 5 4 4 3 2 3 2 3 4 3 4 3 1 2 1 1 -0 -1
5 4 4 4 4 4 2 2 3 2 3 3 3 3 3 2 1 0 0 -0 -0 -1
4 4 2 2 2 2 2 2 2 2 2 2 2 1 1 1 -0 -0 -0 -1 -1 -2
2 1 1 1 2 3 3 2 1 1 2 1 0 1 0 -0 -1 -1 -1 -2 -2 -3
1 1 2 1 1 2 2 1 -0 0 -0 1 -0 -1 -1 -1 -1 -2 -2 -3 -4 -5
1 2 2 2 2 1 1 0 0 0 0 -1 -1 -2 -1 -1 -1 -2 -3 -5 -5 -6
0 1 1 1 1 0 -1 -0 -1 -1 -1 -1 -2 -2 -2 -3 -5 -6 -6 -7 -7 -7

GFSNIL_850_temp_036.txt.gz
Temp
16 16 16 16 16 16 16 16 15 14 11 10 12 10 10 9 9 9 9 9 8 7
15 15 16 16 16 16 15 15 14 12 10 10 10 9 8 8 8 7 8 8 8 6
15 15 15 16 16 15 15 14 12 10 10 9 9 8 7 7 6 6 7 7 6 5
14 14 14 15 15 14 13 12 11 10 9 8 8 5 5 5 4 5 6 5 5 4
13 13 12 14 13 13 11 10 10 8 7 6 5 4 4 4 4 4 4 4 3 3
12 12 12 12 11 10 10 9 7 7 6 5 4 3 1 3 3 3 3 2 2 1
11 11 11 10 11 10 8 7 6 4 4 3 2 1 2 2 3 3 2 1 1 -0
9 8 8 9 8 7 6 4 3 2 2 1 1 0 1 2 2 2 1 0 -0 -0
6 6 6 6 6 4 3 2 2 1 1 1 1 -0 1 1 1 0 -1 0 -1 -1
8 4 4 4 2 2 1 1 1 1 1 -0 0 0 -0 -0 -0 -0 -1 -1 -1 -2
2 2 1 1 1 1 1 1 1 0 1 0 -0 -1 -1 0 -0 -1 -1 -2 -2 -3
1 1 1 2 2 1 0 0 0 -0 -0 -1 -1 -1 -0 -1 -2 -2 -3 -3 -4 -5
0 0 1 0 0 0 0 0 -0 -2 -1 -1 -2 -3 -3 -3 -2 -3 -4 -4 -5 -5
-0 -0 -0 -0 -0 0 -1 -2 -1 -1 -2 -2 -3 -3 -4 -5 -6 -6 -6 -5 -6 -6

GFSNIL_850_temp_039.txt.gz
Temp
16 16 16 16 16 16 16 16 16 16 15 15 14 12 11 10 10 9 8 9 8 8
16 15 15 16 15 16 16 16 16 15 15 14 13 10 10 9 8 7 8 8 7 7
15 15 15 15 15 15 15 15 15 15 14 13 10 9 9 8 7 6 6 6 6 5
15 14 14 14 14 14 14 14 14 13 12 10 9 9 8 6 6 5 4 4 4 2
14 13 13 13 12 12 12 11 10 10 9 9 8 7 5 5 4 4 4 5 3 2
12 13 12 11 10 9 9 9 9 9 9 8 5 5 4 3 3 3 2 1 0 1
9 10 10 9 8 8 8 8 8 7 6 4 4 3 3 2 2 1 -1 -2 0 -0
7 7 8 7 7 7 6 7 7 6 3 3 3 3 2 1 0 -0 -0 0 -0 -0
5 5 6 6 6 5 4 4 3 2 2 2 2 1 1 0 0 -0 -1 -0 -2 -1
2 3 3 4 3 2 1 1 2 1 1 1 0 0 -0 -0 -1 -2 -2 -2 -2 -2
1 1 1 1 1 1 1 1 1 1 0 -0 0 -0 -1 -1 -2 -1 -2 -2 -2 -3
1 -0 0 0 0 -0 0 -0 -0 -0 -1 -0 -0 -1 -1 -2 -2 -3 -4 -3 -4 -5
-1 -1 -0 -0 -0 -1 -0 -0 -0 -1 -1 -3 -2 -2 -2 -3 -4 -3 -3 -4 -5 -6
-1 -1 -1 -1 -1 -1 -0 -0 -1 -2 -2 -2 -3 -3 -3 -3 -4 -5 -6 -6 -6 -6

GFSNIL_850_temp_042.txt.gz
Temp
14 14 15 16 16 16 16 16 16 16 15 15 15 14 14 11 10 10 9 9 8 8
14 14 14 15 15 15 15 15 15 15 15 15 14 14 14 12 10 9 8 8 7 7
14 14 14 14 14 14 15 14 14 14 14 14 14 13 11 10 9 8 7 7 6 4
13 14 14 13 14 13 13 13 13 12 12 12 11 10 10 9 8 7 6 5 4 3
12 13 13 12 12 13 12 11 11 10 10 9 9 9 8 7 6 6 5 4 3 3
11 11 11 10 10 10 10 8 8 8 9 9 8 7 6 6 5 3 3 2 2 2
6 7 7 8 7 8 8 8 8 8 7 7 6 5 4 3 3 2 2 2 1 1
6 6 6 6 6 7 7 6 6 6 5 5 4 3 2 2 2 2 1 0 0 -0
4 5 5 5 5 5 5 4 3 3 3 2 2 1 1 1 1 0 -0 -1 -1 -1
1 2 3 2 3 2 2 1 1 1 1 0 1 1 0 -0 -0 -0 -1 -1 -3 -2
1 1 1 1 1 1 1 1 1 0 -0 -0 -0 -1 -0 -1 -1 -1 -2 -4 -3 -3
-0 0 0 0 -0 -1 -0 -1 -1 -1 -1 -1 -1 -1 -0 -1 -3 -3 -3 -3 -3 -4
-1 -0 -0 -1 -1 -1 -1 -1 -0 -0 -1 -1 -1 -0 -1 -4 -3 -3 -4 -4 -5 -6
-1 -1 -1 -1 -1 -1 -1 -1 -1 -0 -2 -2 -3 -4 -4 -3 -4 -5 -5 -5 -5 -6

GFSNIL_850_temp_045.txt.gz
Temp
13 13 13 14 14 14 14 14 15 15 15 15 15 14 14 14 14 12 10 10 10 9
13 13 13 13 13 13 14 14 14 14 14 15 15 14 14 14 14 13 10 9 9 8
12 12 13 13 14 13 13 14 13 13 12 13 13 14 13 12 11 10 9 9 8 7
11 12 12 13 13 13 13 13 12 11 11 11 11 10 10 10 10 9 9 8 7 6
10 11 12 12 13 12 12 12 11 10 10 9 9 9 9 9 8 8 7 5 5 4
10 10 10 11 10 12 10 9 8 9 8 8 8 8 8 7 7 6 4 3 3 2
8 7 6 9 7 8 10 7 7 8 8 7 7 7 7 6 4 3 2 1 1 1
6 5 5 5 5 6 6 6 6 6 5 5 4 4 3 2 2 2 1 1 1 0
3 3 3 3 3 3 4 4 3 3 2 1 1 1 1 1 1 1 1 1 -0 -1
1 1 1 1 1 2 1 1 1 1 0 0 0 0 0 -0 0 0 -1 -1 -1 -1
0 -0 -1 -0 0 -0 0 0 0 -0 0 -0 -1 -1 -1 -0 -0 -1 -1 -1 -2 -3
-1 -1 -1 -1 -1 -1 -1 -1 -1 -1 -1 -0 -1 -1 -1 -1 -2 -3 -3 -3 -3 -4
-1 -1 -1 -1 -1 -1 -1 -1 -1 -1 -1 -1 -1 -2 -2 -2 -3 -3 -3 -4 -4 -5
-1 -1 -1 -1 -1 -1 -1 -1 -1 -1 -1 -2 -2 -3 -3 -4 -4 -4 -4 -5 -5 -6

GFSNIL_850_temp_048.txt.gz
Temp
12 13 13 13 12 10 11 11 13 14 14 14 14 14 13 14 14 14 13 11 11 11
12 12 12 13 13 13 12 12 13 12 13 12 13 13 13 13 14 14 13 11 11 11
10 11 11 12 12 13 13 12 12 13 12 12 12 11 10 10 10 10 10 10 10 9
10 10 11 11 11 12 12 12 13 12 11 10 11 10 10 10 9 9 9 9 9 8
9 10 10 11 11 11 11 12 11 12 11 8 9 9 9 9 9 9 8 8 7 7
8 7 7 8 9 9 9 7 10 8 11 8 7 7 7 8 8 7 7 6 5 4
6 6 6 6 6 5 6 6 7 6 8 8 7 7 7 7 6 5 4 2 1 1
5 4 5 5 4 4 4 5 6 7 6 7 4 5 5 4 3 2 1 1 1 1
3 2 2 3 3 3 3 3 3 3 3 2 1 0 1 1 1 1 1 1 0 0
2 2 2 2 1 1 1 0 -1 -0 -0 -0 -1 -0 -0 -0 0 0 -0 -0 -1 -2
1 1 1 0 0 -0 -0 -1 -1 -1 -1 -0 -1 -1 -0 -1 -1 -1 -2 -1 -2 -2
0 0 -0 -0 -1 -1 -1 -1 -1 -1 -1 -1 -1 -2 -1 -1 -2 -2 -2 -2 -3 -3
-1 -0 -1 -1 -1 -1 -1 -1 -1 -2 -1 -2 -1 -2 -1 -2 -2 -3 -3 -3 -3 -4
-1 -1 -1 -1 -2 -1 -1 -1 -1 -1 -1 -2 -2 -2 -2 -2 -3 -4 -4 -4 -4 -5

GFSNIL_850_temp_051.txt.gz
Temp
10 11 11 11 11 11 12 12 12 11 12 12 12 11 11 11 11 11 10 10 9 10
9 9 10 11 10 10 10 11 11 11 10 11 12 10 11 10 10 10 10 9 9 8
8 9 10 10 10 9 9 9 9 10 10 9 10 9 10 10 10 9 9 9 9 8
8 9 9 9 10 10 11 11 11 11 9 8 9 9 9 9 9 8 8 8 8 8
8 8 8 8 8 9 10 10 11 10 9 8 7 8 8 8 8 7 7 7 7 7
7 7 7 7 7 7 7 8 8 8 7 7 7 7 7 7 7 7 6 6 6 5
5 5 5 6 5 5 4 4 5 5 5 5 6 6 6 6 7 6 5 4 3 2
4 3 3 3 5 5 5 4 4 4 3 3 4 5 4 3 5 4 2 1 1 1
3 2 3 3 2 2 3 2 2 2 1 1 1 1 1 1 1 1 0 0 0 0
1 2 1 1 1 1 1 1 0 -0 1 -0 -1 -0 0 -1 0 -0 -1 -1 -1 -1
1 0 -0 -0 -0 -0 -0 0 0 0 -0 -1 -1 -1 -1 -1 -1 -1 -2 -1 -1 -1
0 -0 -1 -0 -1 -1 -0 -1 -1 -1 -1 -1 -1 -2 -2 -2 -2 -3 -1 -2 -2 -3
0 -0 0 -0 -0 -0 -0 -0 -1 -1 -1 -1 -1 -1 -1 -1 -2 -2 -2 -2 -3 -3
-1 -1 -1 -1 -1 -1 -1 -0 -1 -1 -3 -2 -2 -2 -3 -3 -3 -3 -4 -4 -5 -5